www.pogodaiklimat.ru

ПОГОДА в Понка-Сити, OK

  • Прогноз погоды в Понка-Сити
  • Монитор погоды в Понка-Сити
  • Климат в Понка-Сити

АРХИВ ПОГОДЫ в Понка-Сити

Время (UTC), дата Ветер
(напр.,м/с)
 
Видим.   Явления Облачность Т
(С)
Тd
(С)
f
(%)
Тe
(С)
Тes
(С)
Комфортность

P
(гПа)

Po
(гПа)
Тmin
(С)
Tmax
(С)
R
(мм)
SD
(см)
05:53 25.05 З  4
{15} 
16 км    5/2 750 м
[средняя] 
+20.0  +16.7  81  +23  +23  комфорт  1010.7  975.4         
06:53 25.05 нст  16 км    ясно  +20.0  +16.1  78  +23  +23  комфорт  1011.2  976.1         
07:53 25.05 Ю  16 км    ясно  +18.9  +16.1  84  +20  +20    1012.4  977.1         
08:31 25.05 Ю  16 км    8/8 360 м  +18.9  +16.7  87  +21  +21  комфорт    977.7         
08:53 25.05 нст  16 км    10/10 300 м  +18.9  +16.7  87  +20  +20    1013.4  978.0         
09:35 25.05 ЮВ  16 км    2/2 270 м  +18.3  +16.7  90  +19  +19      978.0         
09:53 25.05     16 км    2/2 270 м  +18.3  +16.7  90  +19  +19    1013.6  978.0         
10:53 25.05     16 км    8/5 150 м
[средняя] 
+18.3  +17.2  93  +19  +19      978.7  +17.8  +20.6     
11:53 25.05     16 км    8/0 2400 м
[средняя] 
+18.9  +17.2  90  +20  +20      979.3         
12:53 25.05     16 км    ясно  +21.7  +18.3  81  +26  +29  душно  1015.1  979.3         
13:53 25.05     16 км    5/0 2400 м
[средняя] 
+22.8  +18.9  79  +29  +34  очень
душно 
1015.2  979.7         
14:42 25.05     16 км    8/8 630 м  +25.0  +20.0  74  +31  +33  очень
душно 
  979.7         
14:53 25.05     16 км    8/8 600 м  +25.0  +20.0  74  +31  +33  очень
душно 
1015.1  979.7         
15:53 25.05     16 км    10/10 690 м  +25.0  +20.0  74  +31  +31  очень
душно 
1015.0  979.7         
16:53 25.05     16 км    10/10 870 м  +26.7  +20.6  69  +33  +33  очень
душно 
1014.8  979.3  +18.3  +26.7     
17:53 25.05     16 км    10/10 960 м  +27.2  +21.1  69  +34  +34  очень
душно 
1014.3  979.0         
18:53 25.05     16 км    10/10 1050 м  +27.8  +21.1  67  +35  +35  очень
душно 
1013.7  978.4         
19:53 25.05     16 км    8/8 900 м  +29.4  +22.2  65  +38  +43  очень
душно 
1012.9  977.7         
20:53 25.05     16 км    5/5 1260 м  +28.9  +20.6  61  +36  +46  очень
душно 
1012.5  977.4         
21:53 25.05     16 км    ясно  +27.8  +20.6  65  +35  +48  очень
душно 
1011.9  976.4         
22:53 25.05     16 км    н/о  +26.7  +20.6  69  +33  +33  очень
душно 
1011.8  976.4  +26.7  +29.4     
23:53 25.05     16 км    н/о  +26.1  +21.1  74  +33  +33  очень
душно 
1013.0  977.7         
00:22 26.05     н/о  гроза  н/о                978.0         
00:31 26.05     н/о  гроза  н/о                978.0         
00:46 26.05     н/о    н/о                978.4         
00:53 26.05     н/о    н/о                978.0         
01:16 26.05     н/о  гроза  н/о                979.3         
01:53 26.05     н/о  гроза  н/о                         
02:15 26.05     н/о  гроза  н/о                         
02:53 26.05     13 км  гроза, дождь  н/о  +18.9  +17.2  90  +20  +20    1017.0           
03:11 26.05     11 км  дождь  10/0 2400 м
[средняя] 
+18.9  +17.2  90  +20  +20               
03:25 26.05     11 км  гроза, слабый дождь  10/0 2250 м
[средняя] 
+19.4  +17.2  87  +21  +21  комфорт             
03:40 26.05     10 км  дождь, дымка  10/0 2250 м
[средняя] 
+19.4  +17.8  90  +21  +21  комфорт             
03:53 26.05     13 км  гроза, слабый дождь  10/0 2250 м
[средняя] 
+19.4  +17.8  90  +21  +21  комфорт  1017.2           
04:24 26.05     6 км  гроза с дождем, дымка  10/0 2250 м
[средняя] 
+19.4  +17.8  90  +21  +21  комфорт             
04:43 26.05     14 км  гроза, слабый дождь  10/0 2250 м
[средняя] 
+19.4  +17.8  90  +21  +21  комфорт             
04:53 26.05     16 км  гроза, слабый дождь  10/0 2250 м
[средняя] 
+19.4  +17.8  90  +21  +21  комфорт  1015.5  980.0      11.4   
05:11 26.05     16 км  слабый дождь  10/0 2400 м
[средняя] 
+18.9  +17.8  93  +20  +20      976.7         
05:53 26.05     16 км    ясно  +19.4  +16.1  81  +21  +21  комфорт  1011.6  976.4         
06:53 26.05     16 км    8/5 360 м
[средняя] 
+18.9  +17.2  90  +20  +20    1014.4  979.0         
07:07 26.05     16 км    10/8 300 м
[средняя] 
+18.9  +17.2  90  +20  +20      979.0         
07:18 26.05     16 км    8/8 270 м  +18.9  +17.2  90  +20  +20      978.7         
07:34 26.05     16 км    5/5 240 м  +18.9  +17.2  90  +20  +20      978.7         
07:53 26.05     16 км    ясно  +18.3  +17.2  93  +19  +19    1014.4  979.0      1.3   
08:53 26.05     16 км    10/10 1350 м  +18.9  +17.2  90  +20  +20    1014.2  979.0         
09:39 26.05     16 км  гроза  10/10 210 м  +18.9  +17.2  90  +20  +20      980.0         
09:53 26.05     16 км  гроза  10/10 210 м  +18.9  +17.2  90  +20  +20    1015.7  980.3         
10:12 26.05     16 км    8/8 270 м  +18.9  +17.2  90  +20  +20      979.7         

 

Местоположение метеостанции Ponca City Municipal Airport: широта 36.7306 долгота -97.0997 высота над уровнем моря 307 м.

В архиве по умолчанию представлена погода в Понка-Сити за последние 1-2 суток. Обновление информации о фактической погоде в базе происходит ежечасно! Архивные данные за месяц целиком и за предыдущие месяцы Вы можете получить, выбрав интересующий диапазон дат из раскрывающегося списка и нажав кнопку "Ввод!".

Внимание! Архив погоды МЕТАР в базе сайта хранится не более 60 дней. Нет смысла пытаться выбрать более раннюю дату.

Внимание! Время в таблицах - всемирное. Для получения местного времени необходимо прибавить поправку, которая в Понка-Сити равна -6 ч.

Ветер - указаны скорость ветра в м/с и направление, откуда дует ветер: С - северный, СВ - северо-восточный, В - восточный, ЮВ - юго-восточный, Ю - южный, ЮЗ - юго-западный, З - западный, СЗ - северо-западный.
Видимость - горизонтальная дальность видимости в метрах или километрах. При видимости от 1 до 10 км при отсутствии осадков обычно наблюдается дымка, при ухудшении видимости до 1 км и менее - туман. В сухую погоду видимость может ухудшаться дымом, пылью или мглою.
Атмосферные явления - указаны явления, наблюдавшиеся в указанный момент времени.
Облачность - указаны через наклонную черту верхняя и нижняя облачность в баллах и высота нижней границы облаков в метрах. Внимание: облачность, как и прочие метеорологические величины в США измеряются автоматическими метеостанциями. Указанные значения в баллах носят условный характер и показывают процент времени, в течение которого, в среднем, лазерный луч высотомера отражался от облаков обратно.
T - Температура воздуха - температура, измеренная на высоте 2 м над землей.
Td - Температура точки росы - температура, при понижении до которой содержащийся в воздухе водяной пар достигнет насыщения.
f - Относительная влажность воздуха - влажноcть воздуха, измеренная на высоте 2 м над землей.
Te - Эффективная температура - температура, которую ощущает одетый по сезону человек в тени. Характеристика душности погоды. При расчете учитывается влияние влажности воздуха и скорости ветра на теплоощущения человека.
Tes - Эффективная температура на солнце - температура, которую ощущает человек, с поправкой на солнечный нагрев. Характеристика знойности погоды. Зависит от высоты солнца над горизонтом, облачности и скорости ветра. Ночью, в пасмурную погоду, а также при ветре 12 м/с и более поправка равна нулю.
P - Атмосферное давление - приведенное к уровню моря атмосферное давление.
Po - Атмосферное давление - измеренное на уровне метеостанции атмосферное давление.
Tmin - Минимальная температура - минимум температуры воздуха на высоте 2 м над землей.
Tmax - Максимальная температура - максимум температуры воздуха на высоте 2 м над землей.
R - Количество осадков - Количество выпавших осадков за 3 или 6 часов, мм.
SD - Снежный покров - Высота снежного покрова, см.